"Time","Temp","Dewpoint","Humidity","Pressure","Direction","Speed","Gust","Precip","PrecipRate","Solar"
"00:04:58","31.5","23.9","73.2","30.11","321","3.6","6","0.00","0.00","0"
"00:09:58","31.9","23.9","72.2","30.11","314","3.5","6","0.00","0.00","0"
"00:14:57","32.1","24","71.7","30.11","320","3.6","6","0.00","0.00","0"
"00:19:57","32.2","23.8","71","30.11","309","2.7","4.8","0.00","0.00","0"
"00:24:58","32.3","23.9","71","30.11","326","3.1","6","0.00","0.00","0"
"00:29:59","32.4","24","70.9","30.11","306","3.3","5.8","0.00","0.00","0"
"00:34:59","32.5","23.8","70","30.10","327","2.9","4.8","0.00","0.00","0"
"00:39:59","32.5","23.9","70.3","30.10","330","2.7","4.8","0.00","0.00","0"
"00:44:56","32.4","23.7","70","30.10","331","2.6","6","0.00","0.00","0"
"00:49:56","32.4","23.7","70","30.10","317","2.8","6","0.00","0.00","0"
"00:54:57","32.5","23.8","70","30.10","318","2.7","5.8","0.00","0.00","0"
"00:59:56","32.3","23.6","70","30.10","322","1.5","3.6","0.00","0.00","0"
"01:04:59","32.1","23.4","70","30.10","328","2.5","6","0.00","0.00","0"
"01:09:59","32.4","23.7","70","30.10","328","1.8","6","0.00","0.00","0"
"01:14:59","32.5","23.7","69.6","30.10","345","1.6","6","0.00","0.00","0"
"01:19:59","32.5","23.6","69.3","30.10","347","2.6","5.8","0.00","0.00","0"
"01:24:56","32.3","23.6","70","30.10","345","3.3","4.6","0.00","0.00","0"
"01:29:57","32","23.4","70","30.10","344","3","4.8","0.00","0.00","0"
"01:34:56","31.8","23.5","71","30.10","344","2.4","3.6","0.00","0.00","0"
"01:39:57","31.8","23.2","70.3","30.10","344","1.3","2.4","0.00","0.00","0"
"01:44:58","31.7","23.4","71","30.10","344","0.8","2.4","0.00","0.00","0"
"01:49:58","31.5","23.2","71","30.10","344","0.9","2.4","0.00","0.00","0"
"01:54:59","31.5","23.2","71","30.10","344","1.7","3.6","0.00","0.00","0"
"01:59:59","31.4","23.1","71","30.10","344","2.1","3.6","0.00","0.00","0"
"02:04:58","31.3","23.1","71.2","30.10","344","0.4","2.4","0.00","0.00","0"
"02:09:57","31","23","72","30.10","344","0.4","2.4","0.00","0.00","0"
"02:14:58","30.5","22.8","72.8","30.10","344","1.3","2.4","0.00","0.00","0"
"02:19:58","30","22.7","74","30.10","344","0.9","2.4","0.00","0.00","0"
"02:24:56","29.7","22.5","74.5","30.10","344","0.2","2.4","0.00","0.00","0"
"02:29:57","29.3","22.4","75","30.10","344","0","1.2","0.00","0.00","0"
"02:34:58","29.1","22.4","75.7","30.10","344","0.1","1.2","0.00","0.00","0"
"02:39:58","28.8","22.3","76.2","30.10","344","0","1.2","0.00","0.00","0"
"02:44:59","28.5","22.3","77.3","30.10","344","0.7","2.4","0.00","0.00","0"
"02:49:59","28.3","22.3","78","30.10","344","1","2.4","0.00","0.00","0"
"02:54:56","28.4","22.4","78","30.10","344","0.2","1.2","0.00","0.00","0"
"02:59:56","28.2","22.3","78.4","30.10","344","0.2","1.2","0.00","0.00","0"
"03:04:56","28","22.3","79","30.10","344","0","0","0.00","0.00","0"
"03:09:56","27.8","22.1","79","30.10","345","0","0","0.00","0.00","0"
"03:14:56","27.7","22","79","30.10","344","0","0","0.00","0.00","0"
"03:19:57","27.6","22","79.1","30.10","344","0","0","0.00","0.00","0"
"03:24:58","27.5","22.1","80","30.10","344","0.7","2.4","0.00","0.00","0"
"03:29:58","27.3","22.1","80.8","30.10","344","0.1","1.2","0.00","0.00","0"
"03:34:59","27.2","22.1","81","30.10","345","0","0","0.00","0.00","0"
"03:39:59","27.2","22.1","81","30.10","345","0","1.2","0.00","0.00","0"
"03:44:56","27.2","22.1","81","30.10","344","0","0","0.00","0.00","0"
"03:49:57","27.2","22.1","81","30.10","344","0.3","2.4","0.00","0.00","0"
"03:54:56","27.2","22.4","81.9","30.10","344","1.2","2.4","0.00","0.00","0"
"03:59:57","27.2","22.4","82","30.10","344","0.9","2.4","0.00","0.00","0"
"04:04:56","27.2","22.4","82","30.09","344","0.1","1.2","0.00","0.00","0"
"04:09:56","27.2","22.2","81.3","30.09","345","0","0","0.00","0.00","0"
"04:14:57","27","22.2","82","30.09","344","0","1.2","0.00","0.00","0"
"04:19:57","26.7","21.9","82","30.09","345","0","0","0.00","0.00","0"
"04:24:59","26.6","21.8","82","30.09","345","0","0","0.00","0.00","0"
"04:29:59","26.5","21.9","82.8","30.10","344","0.8","3.6","0.00","0.00","0"
"04:34:59","26.5","22","83","30.10","344","0","0","0.00","0.00","0"
"04:39:59","26.4","21.9","83","30.10","344","0","0","0.00","0.00","0"
"04:44:56","26.4","21.9","83","30.10","345","0","0","0.00","0.00","0"
"04:49:56","26.3","21.8","83","30.10","344","0","0","0.00","0.00","0"
"04:54:57","26.2","21.8","83.6","30.10","344","0.8","2.4","0.00","0.00","0"
"04:59:57","26.1","21.9","84","30.10","344","0.7","2.4","0.00","0.00","0"
"05:04:56","26","21.8","84","30.09","344","0.1","1.2","0.00","0.00","0"
"05:09:56","25.9","22","84.8","30.09","344","0.4","2.4","0.00","0.00","0"
"05:14:56","25.9","22","85","30.10","344","0.6","2.4","0.00","0.00","0"
"05:19:57","25.8","21.9","85","30.10","344","0","0","0.00","0.00","0"
"05:24:57","25.7","21.8","85","30.10","345","0","0","0.00","0.00","0"
"05:29:57","25.6","21.7","85","30.11","344","0.3","1.2","0.00","0.00","0"
"05:34:58","25.7","21.8","85","30.11","345","0","0","0.00","0.00","0"
"05:39:58","25.7","21.8","85","30.11","345","0","0","0.00","0.00","0"
"05:44:58","25.7","21.8","85","30.11","345","0","0","0.00","0.00","0"
"05:49:58","25.8","21.9","85","30.11","344","0","0","0.00","0.00","0"
"05:54:58","25.8","21.9","85","30.11","345","0","0","0.00","0.00","0"
"05:59:58","25.8","21.9","85","30.11","345","0","0","0.00","0.00","0"
"06:04:59","25.8","21.9","85","30.11","344","0","0","0.00","0.00","0"
"06:09:59","25.6","21.7","85","30.11","345","0","0","0.00","0.00","0"
"06:14:57","25.4","21.5","85","30.11","344","0","0","0.00","0.00","0"
"06:19:58","25.3","21.6","85.8","30.11","344","0.3","2.4","0.00","0.00","0"
"06:24:59","25.2","21.6","86","30.11","344","0.2","2.3","0.00","0.00","0"
"06:29:59","25.2","21.6","86","30.11","344","0","0","0.00","0.00","0"
"06:34:56","25.2","21.6","86","30.11","344","0","0","0.00","0.00","0"
"06:39:56","25.2","21.6","86","30.11","344","0","0","0.00","0.00","0"
"06:44:57","25.2","21.6","86","30.11","344","0","0","0.00","0.00","0"
"06:49:58","25.1","21.5","86","30.11","344","0","0","0.00","0.00","0"
"06:54:59","25.1","21.5","86.1","30.11","344","0","0","0.00","0.00","0"
"06:59:59","25.1","21.8","87","30.12","344","0.6","2.4","0.00","0.00","0"
"07:04:57","25.2","21.9","87","30.12","344","0.4","2.3","0.00","0.00","0"
"07:09:57","25.3","21.7","86.1","30.12","344","0","0","0.00","0.00","0"
"07:14:58","25.4","21.8","86","30.12","344","0.1","1.2","0.00","0.00","0"
"07:19:59","25.5","21.9","86","30.12","344","0","0","0.00","0.00","0"
"07:24:59","25.5","21.9","86","30.12","344","0","0","0.00","0.00","0"
"07:29:56","25.6","22","86","30.12","344","0.2","2.4","0.00","0.00","7"
"07:34:56","25.7","22.1","86","30.11","336","0.5","3.6","0.00","0.00","9"
"07:39:57","25.8","22.2","86","30.11","297","1.7","3.6","0.00","0.00","12"
"07:44:57","25.7","22.1","86","30.12","295","0.3","2.3","0.00","0.00","19"
"07:49:58","25.7","22.2","86.2","30.12","296","0","0","0.00","0.00","26"
"07:54:59","25.8","22.3","86.3","30.12","296","0","0","0.00","0.00","33"
"07:59:56","26","22.4","86","30.12","296","0","0","0.00","0.00","39"
"08:04:59","26.2","22.8","86.5","30.11","296","0","0","0.00","0.00","44"
"08:09:59","26.5","23","86.3","30.11","296","0","0","0.00","0.00","47"
"08:14:59","27","23.5","86.8","30.11","296","0","0","0.00","0.00","54"
"08:19:56","27.5","23.9","86.4","30.11","296","0","0","0.00","0.00","58"
"08:24:56","28","24.4","86.1","30.11","296","0","0","0.00","0.00","123"
"08:29:56","28.7","25","85.7","30.11","296","0","0","0.00","0.00","125"
"08:34:57","29.7","25.6","84.5","30.11","296","0","0","0.00","0.00","120"
"08:39:56","30.9","26.1","82.1","30.11","296","0","0","0.00","0.00","137"
"08:44:57","33.7","26.8","75.7","30.11","296","0","0","0.00","0.00","149"
"08:49:57","35.1","27","72.1","30.11","296","0.6","3.6","0.00","0.00","162"
"08:54:56","36.4","26.3","66.6","30.11","323","1.8","4.8","0.00","0.00","176"
"08:59:56","37.3","26","63.5","30.12","338","2","4.8","0.00","0.00","195"
"09:04:58","38","25.8","61.2","30.12","337","2.5","4.8","0.00","0.00","207"
"09:09:58","38.3","25.7","60.2","30.12","336","2.1","4.8","0.00","0.00","218"
"09:14:58","38.9","26.1","59.8","30.12","330","1.6","3.6","0.00","0.00","229"
"09:19:57","39","26.1","59.3","30.12","313","2.3","6","0.00","0.00","243"
"09:24:57","39.1","25.8","58.6","30.12","345","2.8","7.2","0.00","0.00","255"
"09:29:57","39.6","26.4","58.8","30.12","348","3","8.4","0.00","0.00","262"
"09:34:57","40.1","26.3","57.5","30.12","348","3.3","8.1","0.00","0.00","271"
"09:39:56","39.9","26.1","57.6","30.12","321","4.7","8.4","0.00","0.00","276"
"09:44:59","39.9","26.2","57.9","30.12","310","5","12","0.00","0.00","281"
"09:49:59","40","26.7","58.7","30.12","314","3.5","7.2","0.00","0.00","283"
"09:54:59","40.6","27.1","58.2","30.12","350","5","10.8","0.00","0.00","290"
"09:59:58","40.9","26.8","56.9","30.13","328","3.1","8.1","0.00","0.00","299"
"10:04:56","40.5","26.6","57.5","30.13","296","3","6","0.00","0.00","308"
"10:09:56","41.4","27.8","58.3","30.13","267","3.3","7.2","0.00","0.00","315"
"10:14:56","41.5","28.1","58.6","30.13","224","3","6.9","0.00","0.00","323"
"10:19:59","42.1","28.4","57.9","30.13","235","3.1","5.8","0.00","0.00","332"
"10:24:59","42.3","27.5","55.5","30.13","265","2.2","4.8","0.00","0.00","338"
"10:29:59","42.9","28.5","56.5","30.13","271","1.5","3.6","0.00","0.00","345"
"10:34:58","43.1","28.7","56.5","30.13","261","3.4","7.2","0.00","0.00","352"
"10:39:58","43.2","28.3","55.5","30.13","240","2.9","6","0.00","0.00","359"
"10:44:58","43.3","28.4","55.3","30.13","239","3.1","6","0.00","0.00","366"
"10:49:57","43.9","28.2","53.7","30.12","292","2.9","6","0.00","0.00","376"
"10:54:57","43.6","27.7","53.2","30.12","291","2.8","6","0.00","0.00","376"
"10:59:56","44.2","28.4","53.8","30.12","312","3","7.2","0.00","0.00","380"
"11:04:59","44.4","28.7","53.9","30.12","230","4","8.4","0.00","0.00","364"
"11:09:58","44.8","28","51.7","30.12","235","4.6","8.4","0.00","0.00","406"
"11:14:58","43.9","27.5","52.2","30.12","233","5","7.2","0.00","0.00","380"
"11:19:58","44.7","28.3","52.4","30.12","293","3.7","7.2","0.00","0.00","388"
"11:24:57","44","27.5","51.9","30.12","297","2.7","7.2","0.00","0.00","332"
"11:29:57","43.8","27.6","52.7","30.12","327","2.2","4.8","0.00","0.00","381"
"11:34:57","44.7","28.3","52.2","30.11","328","3","6","0.00","0.00","420"
"11:39:56","45.6","29","52.3","30.11","312","2.7","4.8","0.00","0.00","425"
"11:44:56","46","28.5","50.4","30.11","269","2.9","4.8","0.00","0.00","424"
"11:49:56","45.7","28.5","50.9","30.10","265","1.7","4.8","0.00","0.00","415"
"11:54:56","46","28.5","50.3","30.10","252","2","4.8","0.00","0.00","413"
"11:59:59","46.1","28.8","50.5","30.10","315","1.2","4.8","0.00","0.00","406"
"12:04:58","46.2","28.1","49.1","30.09","334","2.3","6","0.00","0.00","415"
"12:09:57","46.2","28.1","49.1","30.09","318","2.3","6","0.00","0.00","427"
"12:14:57","47","29.1","49.5","30.09","328","2.5","6","0.00","0.00","432"
"12:19:57","46.6","28.2","48.5","30.08","307","3.3","6","0.00","0.00","417"
"12:24:57","46.2","27.7","48.2","30.08","292","2.7","4.8","0.00","0.00","397"
"12:29:56","46.5","28.9","50.1","30.08","309","2.2","4.8","0.00","0.00","394"
"12:34:56","47","28.2","47.8","30.07","342","1.9","4.8","0.00","0.00","445"
"12:39:59","47","28.7","48.8","30.07","342","1.4","4.6","0.00","0.00","352"
"12:44:56","47","28.2","47.7","30.07","281","2.1","3.6","0.00","0.00","341"
"12:49:59","46.4","28.5","49.4","30.06","100","2.9","6","0.00","0.00","338"
"12:54:59","46.3","28.2","49.1","30.06","76","1.4","5.8","0.00","0.00","343"
"12:59:58","46.5","28.6","49.5","30.06","63","1.6","3.6","0.00","0.00","316"
"13:04:57","47","28.9","49.2","30.05","0","2.2","4.8","0.00","0.00","334"
"13:09:56","47.2","28.1","47.2","30.05","184","2.8","4.8","0.00","0.00","336"
"13:14:57","47","27.1","45.7","30.05","144","2.4","4.8","0.00","0.00","330"
"13:19:56","47.2","27.8","46.7","30.04","157","2.4","4.8","0.00","0.00","332"
"13:24:59","47.8","28.6","47.1","30.04","198","4.2","8.4","0.00","0.00","323"
"13:29:59","47.5","27.8","46.2","30.04","185","3.1","6","0.00","0.00","352"
"13:34:56","47.3","27.8","46.5","30.03","152","3.4","6","0.00","0.00","350"
"13:39:56","47.2","28.2","47.5","30.03","157","3.1","8.4","0.00","0.00","343"
"13:44:56","47.4","27.9","46.5","30.03","218","2.9","6","0.00","0.00","339"
"13:49:55","47.4","27.8","46.4","30.03","129","2.1","6","0.00","0.00","306"
"13:54:59","47.1","27.7","46.8","30.03","137","3.1","9.6","0.00","0.00","292"
"13:59:58","46.8","27.4","46.5","30.03","154","3.4","7.2","0.00","0.00","304"
"14:04:57","47.4","29","48.6","30.03","186","5.1","8.4","0.00","0.00","302"
"14:09:56","47.5","28.8","48","30.03","187","4.5","12","0.00","0.00","301"
"14:14:56","47.4","28.9","48.5","30.03","174","2.6","6","0.00","0.00","301"
"14:19:59","47.1","28.4","48.1","30.03","121","3.3","6","0.00","0.00","299"
"14:24:59","46.7","28.4","48.8","30.03","107","3.7","6","0.00","0.00","306"
"14:29:58","47","29.3","50","30.03","108","4","7.2","0.00","0.00","302"
"14:34:58","46.8","28.8","49.4","30.01","125","3.7","7.2","0.00","0.00","288"
"14:39:58","47.7","29.8","49.7","30.01","200","3.2","7.2","0.00","0.00","281"
"14:44:58","48","29.4","48.4","30.02","128","2.7","6","0.00","0.00","272"
"14:49:57","48.3","29.9","48.7","30.02","179","2.9","8.4","0.00","0.00","262"
"14:54:58","47.9","29.1","47.9","30.02","150","2.1","4.8","0.00","0.00","255"
"14:59:57","47.4","28.8","48.3","30.02","162","1.9","6","0.00","0.00","251"
"15:04:59","47.5","28.3","47.1","30.02","186","1.9","6","0.00","0.00","169"
"15:09:58","47","28.3","48","30.02","159","2.3","6","0.00","0.00","167"
"15:14:58","47.1","28.2","47.7","30.02","192","3.2","6","0.00","0.00","155"
"15:19:58","46.6","28.5","49.2","30.02","190","3","7.2","0.00","0.00","137"
"15:24:58","46.4","28.3","49","30.02","151","1.8","5.8","0.00","0.00","137"
"15:29:57","46","27.9","49.1","30.03","142","2.9","6","0.00","0.00","111"
"15:34:57","45.9","28.1","49.6","30.03","179","3.1","7.2","0.00","0.00","93"
"15:39:56","45.6","27.9","49.7","30.03","200","4.1","7.2","0.00","0.00","77"
"15:44:56","45.4","27.8","50","30.03","187","3.9","8.4","0.00","0.00","65"
"15:49:59","45.2","27.6","50","30.03","178","2.7","8.1","0.00","0.00","62"
"15:54:59","45","27.6","50.1","30.03","157","2.6","7.2","0.00","0.00","58"
"15:59:59","44.9","27.7","50.6","30.03","153","1.8","7.2","0.00","0.00","51"
"16:04:57","44.8","27.8","51.2","30.02","175","3.2","6.9","0.00","0.00","46"
"16:09:56","44.6","27.9","51.7","30.02","171","2.8","7.2","0.00","0.00","42"
"16:14:56","44.4","27.8","51.8","30.02","195","4","8.4","0.00","0.00","39"
"16:19:56","44.1","27.7","52.1","30.02","185","3.4","7.2","0.00","0.00","32"
"16:24:56","44","27.2","51.5","30.02","187","2.5","5.8","0.00","0.00","26"
"16:29:56","43.9","27.8","52.9","30.02","192","1.3","4.8","0.00","0.00","23"
"16:34:56","43.6","27.5","52.8","30.02","190","2.3","6","0.00","0.00","18"
"16:39:56","43.4","27.4","53","30.02","193","2.1","7.2","0.00","0.00","16"
"16:44:57","43.3","27.3","53","30.02","182","1.7","4.8","0.00","0.00","11"
"16:49:57","43.2","27.2","53","30.02","185","2.6","7.2","0.00","0.00","7"
"16:54:58","43.1","26.8","52.3","30.02","174","2.6","6.9","0.00","0.00","5"
"16:59:58","43","26.9","52.8","30.02","170","1.8","4.8","0.00","0.00","0"
"17:04:56","42.8","26.7","52.6","30.02","157","2","4.8","0.00","0.00","0"
"17:09:56","42.7","26.7","52.9","30.02","155","1.9","4.8","0.00","0.00","0"
"17:14:56","42.5","27","54","30.03","156","2.1","4.6","0.00","0.00","0"
"17:19:57","42.3","26.8","54","30.03","156","1.2","3.6","0.00","0.00","0"
"17:24:58","42.1","27","54.7","30.03","156","0.6","2.4","0.00","0.00","0"
"17:29:59","42","27","55","30.03","156","0.2","1.2","0.00","0.00","0"
"17:34:59","41.8","26.8","55","30.01","156","0.4","1.2","0.00","0.00","0"
"17:39:56","41.7","26.7","55","30.01","156","0.2","2.4","0.00","0.00","0"
"17:44:56","41.6","26.6","55","30.01","156","0","0","0.00","0.00","0"
"17:49:57","41.4","26.6","55.4","30.01","156","0","0","0.00","0.00","0"
"17:54:58","41.1","26.6","56","30.01","156","0","0","0.00","0.00","0"
"17:59:58","40.8","26.4","56.2","30.02","156","0","1.2","0.00","0.00","0"
"18:04:56","40.4","26.4","57.1","30.02","156","0","1.2","0.00","0.00","0"
"18:09:59","40","27","59.6","30.02","156","0","1.2","0.00","0.00","0"
"18:14:56","39.5","26.7","59.8","30.02","156","0","0","0.00","0.00","0"
"18:19:57","39.2","26.7","60.6","30.02","156","0.1","1.2","0.00","0.00","0"
"18:24:58","38.9","26.8","61.4","30.02","156","0","0","0.00","0.00","0"
"18:29:58","38.7","27.1","62.7","30.02","156","0","0","0.00","0.00","0"
"18:34:55","38.4","27","63.2","30.02","156","0","0","0.00","0.00","0"
"18:39:56","38.2","27.3","64.7","30.02","156","0","0","0.00","0.00","0"
"18:44:56","37.9","27.4","65.5","30.02","156","0","0","0.00","0.00","0"
"18:49:57","37.6","27.6","66.8","30.02","156","0","0","0.00","0.00","0"
"18:54:58","37.4","27.5","67.3","30.02","156","0","0","0.00","0.00","0"
"18:59:58","37.2","27.5","67.9","30.02","156","0.1","1.2","0.00","0.00","0"
"19:04:57","37","27.2","67.4","30.02","156","0","0","0.00","0.00","0"
"19:09:57","36.9","27","67","30.02","156","0","0","0.00","0.00","0"
"19:14:58","36.9","27","67","30.02","156","0","0","0.00","0.00","0"
"19:19:59","36.9","27","67","30.02","156","0","0","0.00","0.00","0"
"19:24:56","37","27.1","67.1","30.02","156","0","0","0.00","0.00","0"
"19:29:56","36.9","27.3","68","30.02","156","0","0","0.00","0.00","0"
"19:34:57","36.7","27.2","68.4","30.01","156","0","0","0.00","0.00","0"
"19:39:58","36.5","27.3","69","30.01","156","0","0","0.00","0.00","0"
"19:44:59","36.3","27.3","69.5","30.01","156","0","0","0.00","0.00","0"
"19:49:59","36.2","27.4","70","30.01","156","0","0","0.00","0.00","0"
"19:54:56","36.1","27.6","70.8","30.01","156","0","0","0.00","0.00","0"
"19:59:56","36","27.5","71","30.01","156","0","0","0.00","0.00","0"
"20:04:56","35.9","27.7","71.8","30.01","156","0","0","0.00","0.00","0"
"20:09:55","35.9","27.7","72","30.01","156","0","0","0.00","0.00","0"
"20:14:56","35.8","27.7","72","30.01","156","0","0","0.00","0.00","0"
"20:19:57","35.7","27.6","72","30.00","156","0","0","0.00","0.00","0"
"20:24:58","35.7","27.8","72.8","30.00","156","0","0","0.00","0.00","0"
"20:29:58","35.7","27.9","73","30.00","156","0","0","0.00","0.00","0"
"20:34:59","35.7","27.9","73","30.00","156","0","0","0.00","0.00","0"
"20:39:59","35.7","28","73.6","30.00","156","0","0","0.00","0.00","0"
"20:44:56","35.6","28.3","74.3","30.00","156","0","0","0.00","0.00","0"
"20:49:56","35.6","28.2","74.2","30.00","156","0","0","0.00","0.00","0"
"20:54:57","35.7","28.2","74","30.00","156","0","0","0.00","0.00","0"
"20:59:57","35.6","28.1","74","30.00","156","0","0","0.00","0.00","0"
"21:04:56","35.6","28.2","74.3","30.00","156","0","0","0.00","0.00","0"
"21:09:56","35.5","28.4","75","30.00","156","0","0","0.00","0.00","0"
"21:14:56","35.5","28.4","75","30.00","156","0","0","0.00","0.00","0"
"21:19:56","35.5","28.4","75","30.00","156","0","0","0.00","0.00","0"
"21:24:57","35.5","28.3","74.6","30.00","156","0","0","0.00","0.00","0"
"21:29:57","35.6","28.3","74.7","30.01","156","0","0","0.00","0.00","0"
"21:34:58","35.5","28.4","75","30.01","156","0","0","0.00","0.00","0"
"21:39:58","35.5","28.4","75","30.01","156","0","0","0.00","0.00","0"
"21:44:59","35.5","28.4","75","30.01","156","0","0","0.00","0.00","0"
"21:49:56","35.5","28","74","30.01","156","0","0","0.00","0.00","0"
"21:54:56","35.6","28","73.8","30.01","156","0","0","0.00","0.00","0"
"21:59:56","35.7","28.1","73.6","30.01","156","0","0","0.00","0.00","0"
"22:04:59","35.9","27.9","72.5","30.01","156","0","0","0.00","0.00","0"
"22:09:59","36.1","27.9","71.8","30.01","156","0","0","0.00","0.00","0"
"22:14:56","36.4","28","71.5","30.01","156","0","0","0.00","0.00","0"
"22:19:57","36.5","28","71","30.01","156","0","0","0.00","0.00","0"
"22:24:58","36.6","27.9","70.4","30.01","156","0","0","0.00","0.00","0"
"22:29:58","36.7","28.2","71.1","30.01","156","0","0","0.00","0.00","0"
"22:34:59","36.6","28.9","73.2","30.00","156","0","0","0.00","0.00","0"
"22:39:59","36.4","28.9","74","30.00","156","0","0","0.00","0.00","0"
"22:44:56","36.3","28.8","74","30.00","156","0","0","0.00","0.00","0"
"22:49:56","36.1","28.8","74.5","30.00","156","0","0","0.00","0.00","0"
"22:54:57","36","28.8","75","30.00","156","0","0","0.00","0.00","0"
"22:59:57","35.9","28.7","75","30.00","156","0","0","0.00","0.00","0"
"23:04:56","35.8","28.6","75","30.00","156","0","0","0.00","0.00","0"
"23:09:56","35.7","28.8","75.5","30.00","156","0","0","0.00","0.00","0"
"23:14:57","35.8","28.4","74.3","30.00","156","0","0","0.00","0.00","0"
"23:19:57","35.9","28.7","75","30.00","156","0","0","0.00","0.00","0"
"23:24:58","35.9","28.6","74.7","30.00","156","0","0","0.00","0.00","0"
"23:29:58","36","28.5","74.1","30.00","156","0","0","0.00","0.00","0"
"23:34:59","36.1","29","75.2","29.99","156","0","0","0.00","0.00","0"
"23:39:59","36.1","29.1","75.5","29.99","156","0","0","0.00","0.00","0"
"23:44:56","36.1","29.3","76","29.99","156","0","0","0.00","0.00","0"
"23:49:56","36","29.1","75.7","29.99","156","0","0","0.00","0.00","0"
